Theta_e
319 319 317 319 320 322 326 334 341 335 334 337 337 342 339 334 335 340 340 330 326 323 319 319 315 317 326 336 342 341 340 342 343 345 343 339 337 339 341 342 344 343 345 347 347 348 347 347 346 345 345 344 345 342 337 335 331 324 322 320 319 321 323 324 328 335 337 339 340 339 340 339 337 335 334 332 332 336 337 337 338 337 337 337 338 338 337 339 341 341 342 342 342 342 333 325 327
319 319 317 320 320 325 330 333 340 336 335 334 334 340 340 339 338 337 337 329 325 323 320 319 314 320 334 342 341 344 346 342 341 342 340 337 338 340 339 342 344 343 345 346 347 347 347 347 346 346 345 344 345 343 338 336 332 325 323 321 319 320 322 319 319 330 337 338 339 340 340 340 339 337 334 332 333 335 335 335 337 337 337 338 339 340 339 341 341 342 342 342 343 338 327 326 330
319 319 318 321 322 326 330 332 339 336 334 333 333 338 337 341 341 336 333 328 324 321 320 317 316 325 332 341 342 346 348 342 342 343 340 337 339 340 339 342 343 343 344 345 346 347 347 347 347 346 345 345 345 344 339 337 334 325 323 322 320 320 319 316 315 323 335 338 337 339 339 341 340 338 334 332 334 336 336 336 338 339 339 339 340 340 341 342 341 342 342 343 343 333 326 330 332
318 318 318 324 327 328 330 333 338 336 334 333 333 336 336 338 339 337 331 326 323 320 320 318 319 330 339 344 343 343 344 342 342 343 341 338 339 341 339 342 344 344 345 345 346 346 347 347 347 346 345 345 345 345 339 337 336 326 322 322 320 321 319 316 314 316 330 336 336 337 338 339 340 339 336 334 334 336 338 338 339 340 340 340 341 342 342 342 342 342 342 343 340 330 328 332 332
317 317 318 325 330 331 332 333 334 336 336 334 336 337 334 336 339 336 327 323 323 321 321 320 318 326 342 343 340 343 342 341 341 340 340 338 339 341 342 344 345 344 346 345 345 346 346 346 347 346 345 346 346 345 340 337 337 330 321 321 321 323 321 316 313 312 323 329 331 335 337 337 339 340 338 337 336 336 337 338 338 339 340 340 341 342 342 342 342 342 342 343 339 329 329 333 332
319 319 320 323 326 329 332 333 332 334 335 332 337 337 331 333 335 332 327 325 323 322 321 324 318 322 341 341 339 341 339 341 341 340 339 339 340 342 344 345 344 344 345 345 345 345 346 347 346 346 346 346 345 344 340 337 338 334 324 320 321 324 324 318 314 313 316 322 327 330 334 337 338 340 340 339 337 336 337 336 337 337 338 340 341 341 341 342 342 342 342 342 341 330 330 334 333
320 321 324 326 326 329 332 332 332 334 333 331 336 335 329 329 329 329 330 328 326 324 323 325 319 325 340 339 341 340 337 340 339 340 340 340 341 343 344 345 345 344 344 345 345 345 346 346 346 346 346 346 345 344 342 338 338 337 328 320 320 324 326 321 316 315 313 320 326 325 329 335 336 338 340 339 338 338 337 336 336 336 336 338 340 340 340 342 341 342 342 341 341 333 328 332 334
322 325 326 330 330 330 332 332 332 333 331 331 334 332 328 329 328 330 332 328 326 325 325 325 320 327 335 336 344 341 337 339 337 339 338 339 341 342 344 344 345 344 345 344 345 345 345 346 346 346 345 345 345 344 342 339 338 338 334 323 319 322 327 325 318 318 315 320 327 323 323 330 332 334 337 338 338 337 337 337 337 336 336 337 339 340 340 341 341 341 341 341 341 337 331 329 331
324 327 327 330 331 330 332 333 331 331 331 330 332 331 329 330 329 330 333 330 326 326 325 326 323 324 330 336 342 339 337 338 337 337 337 338 340 342 344 344 344 344 344 344 345 345 345 345 346 346 346 345 344 345 343 339 338 338 337 330 322 319 324 328 322 320 319 321 328 326 320 322 326 327 331 336 337 337 337 337 337 337 336 336 337 339 340 339 340 340 341 341 340 341 337 329 327
325 327 329 332 332 331 332 333 332 330 329 329 330 331 330 330 330 329 333 332 328 327 326 325 324 322 330 338 339 337 336 337 338 337 338 337 338 341 343 343 342 341 342 343 344 345 345 345 345 346 345 345 344 344 343 341 339 338 338 335 330 322 320 327 327 323 322 323 327 325 320 318 321 322 323 330 334 336 337 336 336 336 336 336 335 337 338 339 339 340 340 340 340 341 340 335 330
328 329 331 332 332 332 332 332 333 331 328 328 329 329 330 330 330 329 330 333 330 328 327 326 327 324 331 339 338 336 332 332 336 337 339 338 336 338 341 343 340 339 340 341 342 344 345 344 345 345 345 345 344 343 343 342 339 338 338 338 337 331 322 322 327 327 324 326 328 324 323 320 319 320 320 321 326 330 335 335 334 334 335 334 334 334 335 337 337 339 339 339 340 339 340 340 335
330 331 330 333 332 331 332 332 332 332 330 329 329 329 331 330 329 331 331 332 331 331 329 328 328 324 329 340 339 335 330 327 332 337 340 338 336 336 340 342 341 340 339 339 341 343 345 344 344 344 344 344 344 343 342 342 341 339 339 339 339 338 332 323 323 328 326 328 331 327 325 325 323 322 321 319 318 321 327 331 331 331 332 332 334 334 333 334 334 335 338 339 339 339 339 339 338
330 332 331 333 334 333 333 333 332 332 332 330 328 330 331 330 329 331 331 331 331 332 331 329 328 323 326 336 337 335 332 327 328 336 339 338 337 335 337 341 341 341 339 338 339 341 343 344 343 343 344 343 344 343 342 342 341 340 340 339 338 340 339 332 324 325 327 328 333 333 328 327 328 327 325 321 318 317 319 324 327 330 331 330 332 333 332 332 331 332 335 337 338 338 339 339 339
328 330 331 334 334 335 335 334 334 332 334 331 329 332 330 329 331 330 330 331 331 331 331 330 327 326 328 330 333 336 334 328 326 333 338 338 336 336 337 339 341 341 340 339 338 340 341 342 343 343 343 343 343 343 342 342 341 341 342 339 338 339 341 339 332 325 324 327 332 335 332 329 329 330 329 326 321 316 316 319 323 328 330 330 330 330 331 332 331 332 333 336 337 337 338 338 338
327 328 330 334 335 335 335 336 334 332 335 334 331 333 329 330 333 330 330 330 331 331 331 330 326 329 333 329 331 333 329 329 328 327 333 337 336 338 340 339 341 341 340 340 339 339 340 340 341 342 342 342 342 342 342 341 340 340 342 340 338 338 340 341 338 332 325 324 329 335 335 332 330 331 332 331 325 318 315 317 320 324 328 328 331 331 329 330 331 332 332 333 336 337 337 337 337
326 327 329 333 335 335 336 335 334 333 336 335 332 331 329 332 332 330 331 329 331 331 330 331 327 330 335 330 329 327 323 329 332 327 329 335 336 338 341 341 341 341 339 340 340 339 339 340 340 341 341 342 342 341 342 341 339 338 339 341 339 337 339 341 340 338 333 325 324 330 334 334 332 332 332 333 330 322 316 315 317 321 323 324 329 331 327 327 328 329 331 331 333 335 336 336 336
325 326 330 333 333 335 336 335 335 335 335 335 333 330 331 333 330 330 330 328 329 330 331 332 328 330 334 331 326 324 325 330 334 333 331 335 336 336 339 340 340 341 341 339 340 340 339 340 340 341 341 341 341 340 341 340 339 338 337 340 340 339 340 341 340 340 338 332 325 327 331 333 334 334 333 334 333 327 320 315 315 318 320 320 324 328 328 327 326 326 328 329 331 332 334 334 334
325 327 331 332 332 333 335 334 333 333 333 333 332 330 331 333 331 330 330 329 329 329 330 330 328 328 329 328 325 325 329 333 336 338 336 337 337 337 337 335 336 339 340 340 340 339 339 340 340 340 341 341 340 340 340 341 340 338 338 338 339 341 341 341 341 340 340 338 332 330 330 329 333 336 334 334 334 331 325 318 315 314 317 320 320 325 329 328 327 327 326 327 329 331 332 332 333
326 329 330 330 330 332 332 332 331 330 331 333 333 332 332 333 331 330 332 332 329 330 332 330 328 328 328 327 324 325 328 329 332 336 338 339 337 337 337 335 334 336 338 340 340 340 339 339 339 339 341 341 341 340 340 341 339 338 338 337 337 340 341 340 340 341 340 340 337 334 332 329 330 336 336 335 335 334 329 322 317 314 315 319 319 321 327 327 328 329 326 327 329 330 331 331 331
326 328 329 329 328 330 326 325 330 329 333 335 332 332 332 331 331 330 332 334 331 331 332 331 330 329 330 330 325 324 324 323 324 328 332 336 339 337 336 335 333 333 336 337 338 340 339 339 339 339 340 340 340 340 340 340 339 338 337 336 336 338 340 339 339 341 340 340 340 337 335 332 331 335 337 337 336 335 332 325 319 315 314 317 318 319 324 326 327 329 327 327 328 329 329 329 330
326 327 330 331 327 326 322 320 326 328 331 334 331 331 331 328 328 330 332 334 332 330 328 330 333 332 332 331 326 322 322 321 320 322 324 330 337 337 332 331 330 331 334 335 336 339 339 339 338 338 339 339 339 339 340 339 338 338 337 337 336 337 338 337 337 339 339 340 340 338 336 335 334 335 337 337 336 336 334 329 323 317 314 315 316 316 320 323 325 326 327 326 325 325 324 325 328
327 326 328 330 324 322 321 318 322 325 327 329 329 330 328 323 326 330 331 333 333 330 327 327 330 332 331 330 326 324 325 324 322 322 324 326 331 335 332 330 329 330 332 334 335 336 338 338 337 336 335 336 337 338 336 333 334 336 336 337 336 336 337 336 335 337 338 338 339 338 336 336 335 336 337 337 337 336 335 333 328 321 315 313 312 313 316 317 319 321 323 322 320 319 318 320 324
326 324 323 324 322 321 319 317 322 325 325 326 326 325 322 321 324 326 327 330 331 329 328 327 328 328 327 326 325 327 329 328 324 322 324 325 326 330 332 332 333 332 331 332 334 335 337 338 338 337 335 334 334 333 332 330 331 332 333 335 336 336 336 335 334 334 335 336 337 338 337 337 337 337 336 337 337 336 335 335 332 325 318 315 312 312 313 314 314 316 317 317 317 317 317 316 318
324 325 322 319 319 320 319 319 322 324 325 324 322 320 319 322 323 321 322 325 326 325 327 329 328 325 324 326 327 326 326 325 323 320 321 323 323 325 326 329 333 334 334 333 333 334 336 338 339 339 338 337 336 334 333 334 334 333 333 333 334 335 335 335 333 332 332 332 334 336 338 337 338 338 336 337 337 335 335 336 334 329 322 317 315 313 312 312 313 315 317 320 320 319 318 318 319
323 325 323 317 315 317 319 319 319 320 321 319 318 319 321 324 321 317 319 321 322 323 326 330 329 327 327 329 329 327 326 324 322 320 320 322 322 322 322 323 326 331 336 336 333 333 334 336 338 339 340 339 338 338 338 337 337 337 336 335 334 333 332 332 331 330 330 330 330 332 336 338 338 338 337 337 337 335 335 336 335 333 327 320 317 316 314 314 317 320 322 325 325 324 323 323 325
323 323 320 314 313 313 314 316 317 316 314 314 316 317 319 320 316 314 317 317 319 322 324 330 331 330 330 329 329 329 329 327 322 321 321 321 321 321 321 321 322 327 335 338 335 332 331 334 337 338 339 339 337 337 339 339 337 338 339 337 336 335 333 331 330 329 330 330 330 330 332 335 337 338 337 337 337 336 336 336 336 335 332 324 319 318 317 319 324 326 326 328 328 327 327 326 326
319 321 316 311 312 310 310 313 315 313 310 312 313 314 314 314 313 311 314 315 315 318 320 325 329 330 329 328 329 327 328 326 322 322 322 321 320 320 320 321 321 322 330 336 337 332 329 333 335 336 338 338 337 336 336 337 335 335 336 336 336 335 334 333 333 332 330 330 331 332 331 331 336 338 338 337 337 337 336 336 336 335 333 329 324 320 321 325 327 329 329 329 329 329 328 327 327
312 315 310 310 312 310 309 310 312 310 308 311 311 311 311 311 312 309 312 316 315 318 319 320 323 324 324 326 327 325 324 322 320 321 322 321 321 320 319 319 320 320 324 332 337 335 333 335 335 334 336 337 337 337 335 335 334 333 334 334 334 334 334 333 333 333 333 332 332 332 329 329 335 339 338 337 336 336 337 336 336 335 334 333 329 322 323 328 329 329 330 330 329 329 328 328 328
310 311 308 311 312 308 308 309 311 309 307 312 309 306 308 308 309 309 311 315 314 316 318 317 317 318 319 321 322 321 319 317 318 320 320 321 321 321 320 317 318 320 321 326 335 338 337 336 336 335 335 336 337 336 336 336 335 335 334 334 335 335 333 330 330 332 333 334 334 332 330 329 334 338 339 338 337 337 337 337 336 335 334 334 332 326 325 329 330 330 330 330 330 330 329 329 328
310 310 308 310 309 307 306 308 312 309 308 314 307 304 310 311 309 309 311 312 311 311 312 313 315 317 317 317 316 316 314 312 314 317 318 320 320 321 320 317 315 317 322 327 332 336 337 337 336 336 335 335 336 335 336 335 335 335 335 335 335 334 331 328 329 329 330 331 332 331 330 330 334 338 338 337 337 337 336 336 335 335 335 334 333 330 328 329 331 331 331 330 330 330 329 329 329
310 306 307 307 305 307 307 306 310 309 309 314 306 303 311 314 313 312 312 314 312 310 311 312 315 317 318 317 316 316 314 310 308 311 313 316 319 321 321 319 316 314 321 330 334 335 337 337 337 336 336 335 335 335 334 334 334 334 335 335 334 334 333 332 333 332 330 330 329 327 327 329 333 336 336 336 336 335 335 335 335 335 335 336 334 333 332 331 330 330 330 330 330 330 330 329 329
311 303 306 307 303 308 313 308 308 307 309 311 306 306 309 309 312 313 312 317 315 312 313 314 316 317 318 320 318 318 317 310 307 309 310 313 316 320 321 321 319 315 317 326 333 336 336 337 336 335 334 334 335 335 334 334 334 334 334 334 334 335 335 336 336 336 335 334 333 331 330 331 334 336 336 337 335 334 334 335 334 334 335 336 335 334 334 333 330 330 330 329 330 330 329 329 329
312 303 305 311 306 307 313 308 305 309 311 309 306 309 310 307 310 312 313 317 315 313 315 316 318 318 317 319 317 315 314 311 310 309 311 316 318 320 321 321 321 318 315 319 326 332 335 336 336 335 332 331 333 333 334 334 333 333 334 333 334 334 334 335 336 336 336 337 337 337 337 337 337 338 338 337 336 335 335 334 334 335 335 336 336 334 335 334 331 330 330 329 329 329 329 329 329
310 305 303 311 311 309 311 309 307 309 311 309 307 309 312 311 313 315 315 315 314 314 316 317 318 317 316 315 314 313 312 314 315 308 308 315 318 320 322 321 321 321 319 318 321 326 330 333 332 332 332 332 334 334 334 333 330 331 332 332 333 333 333 334 334 335 335 335 337 337 338 338 338 338 337 337 337 337 337 335 335 336 335 335 336 335 335 335 331 330 330 330 329 329 329 329 329
307 308 306 307 308 306 309 312 310 309 309 309 309 308 311 313 313 313 312 311 314 315 314 315 314 313 313 311 312 313 313 314 312 305 304 307 310 315 319 321 321 321 321 320 320 322 325 327 325 324 325 327 330 333 334 333 332 332 333 333 333 333 333 333 333 334 334 334 334 335 335 336 337 337 336 336 337 337 336 335 336 336 335 336 336 335 336 335 332 331 331 330 330 329 329 328 328
307 309 308 308 306 304 308 313 311 309 308 307 308 308 309 309 308 310 309 307 314 317 313 313 313 313 313 312 311 311 312 311 306 303 303 304 304 306 311 317 320 320 320 321 320 320 321 322 321 321 320 320 322 328 334 335 334 334 333 333 333 331 331 331 331 332 333 333 333 333 333 334 335 336 336 336 336 336 336 335 335 336 336 336 337 336 336 335 334 333 333 332 331 330 329 329 328
309 306 306 306 304 303 307 311 308 307 308 307 307 307 308 307 306 307 304 302 309 317 316 314 314 313 312 311 311 309 309 308 303 302 303 303 303 303 304 309 316 320 320 319 320 319 319 319 318 318 318 318 318 321 328 332 334 334 333 333 330 329 330 330 329 327 329 331 333 333 332 332 333 335 336 336 336 336 335 335 335 336 337 337 337 337 336 335 334 334 333 333 332 331 330 330 330
308 306 304 302 303 303 303 306 306 304 306 307 306 304 305 306 304 305 303 300 304 309 312 313 312 311 309 308 309 308 308 307 304 303 303 303 304 304 304 304 309 317 319 318 318 316 316 315 313 312 312 316 318 318 321 324 327 330 331 330 328 328 329 330 328 324 324 327 330 333 333 332 332 332 334 335 335 335 335 335 335 335 336 336 336 336 336 335 334 334 333 333 332 332 331 331 330
307 305 301 299 304 303 301 305 306 305 305 307 307 304 304 305 303 303 303 302 302 303 304 305 306 306 304 305 307 308 308 308 307 305 302 301 302 303 304 303 305 312 318 318 317 316 314 312 310 309 308 312 316 318 321 323 322 323 325 327 327 327 327 328 329 327 326 325 326 331 333 333 333 332 332 333 333 333 333 334 335 335 335 335 335 335 335 335 334 334 333 333 332 331 331 331 331
305 304 301 301 303 300 299 303 304 305 304 304 305 303 303 303 302 301 300 300 301 301 302 302 303 303 302 303 304 306 307 307 306 306 303 300 300 302 302 303 303 306 310 313 314 314 313 311 309 309 308 308 312 316 321 325 326 324 324 324 325 327 328 327 328 330 331 330 328 330 332 333 332 330 330 332 333 332 331 332 333 335 334 334 334 335 335 334 334 334 333 333 332 331 331 330 330
304 306 305 306 305 300 300 301 303 306 303 301 302 301 304 305 302 302 303 301 300 299 300 301 302 302 302 303 303 303 304 304 304 305 306 302 299 301 301 302 302 302 303 305 307 309 310 310 309 309 308 308 309 312 317 323 328 329 328 327 326 327 329 329 329 330 331 332 332 331 332 333 331 327 328 332 332 332 332 331 332 334 334 334 333 334 334 334 334 334 333 333 332 331 329 329 329
303 305 305 309 309 304 302 301 304 306 303 303 300 300 309 309 301 301 305 305 302 300 300 301 303 302 302 303 303 303 303 303 303 305 306 302 299 300 301 302 302 302 302 303 303 304 305 307 308 309 308 307 308 310 313 318 325 330 330 329 329 328 328 328 329 330 331 331 332 332 332 332 331 329 330 332 332 332 332 331 331 333 333 333 333 333 333 334 333 333 333 333 332 331 329 327 327
302 302 302 305 306 305 304 302 304 306 303 301 299 301 308 307 302 303 303 303 303 303 302 304 306 304 302 302 302 302 302 302 303 305 306 303 299 299 300 301 302 303 305 305 305 306 306 307 308 309 309 309 309 311 312 314 319 325 328 329 328 327 327 327 327 328 330 330 330 330 330 331 331 331 331 330 331 331 332 332 331 332 332 332 332 332 332 332 332 331 331 330 330 329 329 327 326
302 302 302 304 303 303 304 302 302 306 304 301 301 303 302 303 306 305 299 298 301 303 305 306 304 301 298 297 298 297 297 298 300 301 301 299 298 297 299 301 302 304 305 305 305 306 307 307 308 309 310 311 311 313 315 315 316 319 323 326 327 326 325 325 325 326 328 329 329 328 328 329 330 330 330 330 331 331 331 332 329 327 330 332 332 331 331 330 330 329 329 329 328 328 328 327 326
301 301 302 303 303 302 304 303 302 303 303 302 304 300 298 304 307 301 297 298 298 301 306 304 298 296 295 295 295 295 295 296 296 297 296 296 297 297 298 299 300 301 301 302 303 303 304 304 304 305 305 306 306 307 310 312 315 317 320 323 324 325 324 324 324 324 326 327 327 327 327 328 328 329 329 329 330 330 330 331 326 325 329 330 329 328 329 328 327 327 327 327 328 328 327 327 325
300 300 301 301 301 301 304 306 305 304 302 302 302 298 297 303 303 297 297 299 299 302 303 298 294 294 295 294 294 295 295 295 294 294 294 295 295 296 297 297 297 298 298 300 302 302 303 303 303 303 303 303 303 304 304 306 309 314 318 321 322 322 322 323 323 323 325 325 325 326 326 327 327 327 327 327 329 329 329 329 326 326 329 327 325 324 325 325 324 323 321 320 322 323 323 323 320
299 302 302 302 302 303 305 306 305 303 301 298 299 299 297 299 302 300 297 298 301 302 299 294 294 294 293 292 292 291 291 291 290 290 289 290 291 291 292 294 295 296 296 297 298 299 300 301 301 302 303 303 303 303 303 303 305 308 312 317 320 321 321 322 322 322 323 323 324 325 325 326 327 326 326 326 327 327 327 327 325 326 327 324 322 320 321 324 324 322 319 317 317 317 316 316 315
300 305 305 303 303 304 306 305 302 299 300 299 298 299 296 297 301 299 296 295 296 297 296 293 293 292 290 289 288 287 287 287 287 286 286 286 286 287 287 289 290 292 293 294 295 296 297 298 299 300 300 301 301 302 302 303 304 304 307 311 315 318 320 321 321 321 321 322 322 323 324 325 325 325 325 324 325 326 326 326 325 326 326 323 320 319 321 323 322 321 320 318 317 315 313 312 312
301 304 304 302 301 300 300 301 300 298 298 296 294 296 296 296 296 294 294 293 292 293 293 292 291 288 287 286 285 285 285 285 285 285 285 284 284 284 284 285 286 286 288 289 291 293 295 295 296 297 298 299 300 301 302 303 304 305 306 307 309 312 316 319 320 321 321 321 321 321 322 323 323 324 324 323 323 325 325 324 324 324 323 322 321 321 322 321 321 320 317 315 315 314 312 311 311
299 301 301 300 298 298 298 297 297 297 297 295 293 297 300 299 296 292 291 291 290 290 289 288 287 286 285 284 284 284 283 283 284 283 283 283 283 283 283 283 283 283 283 284 286 289 292 293 293 294 296 297 298 299 301 303 304 306 306 307 308 309 311 314 316 319 320 320 320 320 321 321 322 322 322 322 323 324 323 321 322 322 321 320 320 320 319 318 317 316 314 313 314 313 311 311 311
298 300 300 299 299 299 298 296 296 297 297 295 294 298 301 299 294 290 289 289 287 287 286 286 285 284 284 283 282 282 282 281 282 282 282 282 282 282 281 281 281 281 282 282 283 285 288 290 290 291 292 294 295 297 299 300 303 305 307 308 308 309 309 310 313 315 317 318 319 319 320 320 320 320 320 320 320 320 319 318 318 319 318 317 316 316 315 314 314 313 312 312 312 311 310 310 310
299 299 300 298 299 300 298 297 297 299 298 297 297 299 298 294 291 289 288 287 286 285 284 284 284 283 282 281 281 280 280 280 280 280 280 280 280 280 280 280 280 280 280 281 281 283 285 287 287 288 288 290 291 293 296 298 300 302 305 307 308 308 308 309 311 313 315 317 318 318 318 319 319 319 318 318 318 316 315 314 315 316 315 314 313 313 312 312 312 311 311 310 310 309 309 309 309
299 298 300 297 297 300 299 296 295 297 297 297 299 300 295 292 291 289 287 286 285 284 283 283 282 282 281 280 279 279 278 278 278 278 279 279 279 279 279 279 279 279 279 278 279 280 281 283 284 285 286 287 288 290 292 295 297 299 302 305 307 308 309 309 311 312 314 315 316 316 316 316 317 316 316 316 315 313 311 309 310 311 311 311 310 310 310 311 311 310 309 309 309 308 308 309 308
300 299 299 297 296 299 299 298 298 297 296 297 298 299 297 296 294 290 287 286 284 283 283 282 281 281 280 279 278 278 277 277 277 276 277 277 277 277 277 277 277 277 277 277 278 279 280 281 282 283 284 284 285 287 289 292 295 297 299 301 304 306 307 308 310 311 312 313 313 314 314 313 314 315 314 313 312 311 308 307 307 308 308 308 308 308 309 309 309 308 308 308 309 308 308 308 308
294 296 297 297 298 300 300 300 299 298 298 298 299 298 296 297 295 291 287 285 284 283 282 281 281 280 279 278 278 277 276 276 275 275 275 275 275 275 275 276 276 276 276 276 277 279 280 280 280 282 282 283 285 286 287 290 292 295 297 299 301 303 305 306 308 310 310 310 311 312 312 311 311 312 312 311 310 309 307 306 307 307 307 307 307 308 308 308 308 307 307 308 308 308 308 307 307
291 294 296 295 297 298 298 299 299 299 299 298 298 298 296 293 290 288 286 284 283 282 281 281 280 279 278 277 276 276 275 275 274 274 274 274 274 274 274 274 275 274 275 275 276 278 279 278 279 280 281 282 284 285 286 287 290 292 295 297 299 301 303 305 306 308 308 308 309 310 310 310 310 310 310 309 309 308 307 306 306 306 306 307 307 307 307 307 307 307 307 307 307 307 307 306 306
290 292 294 293 294 296 295 295 296 297 299 298 298 298 293 288 286 285 284 283 282 282 281 280 279 278 278 277 275 275 274 274 273 273 273 273 273 273 273 273 273 273 273 274 274 275 276 276 277 278 279 280 280 282 284 285 288 290 293 295 297 299 301 303 304 306 307 307 307 307 308 308 308 308 308 307 307 307 306 306 305 305 306 306 306 306 305 306 306 306 306 306 306 306 305 305 305
287 289 290 289 291 293 294 295 294 295 297 296 296 297 292 286 285 284 282 282 281 280 280 279 278 278 277 276 275 274 273 273 272 272 272 272 272 272 272 272 272 272 272 272 272 273 274 274 275 276 278 279 279 280 281 284 286 289 291 294 296 298 299 301 303 304 305 306 306 305 306 306 305 305 305 305 305 305 305 305 305 305 305 305 305 305 305 305 305 305 305 304 304 304 303 303 302
Wind_Speed
9 16 18 16 13 8 1 1 3 0 2 1 3 2 1 1 1 1 4 6 3 4 8 11 12 10 2 3 7 8 6 2 2 3 2 2 18 25 22 18 20 28 29 27 27 27 27 27 27 27 27 27 27 27 29 28 26 25 23 21 20 18 16 18 19 20 19 15 13 14 14 15 17 19 19 21 20 18 18 17 18 18 17 16 15 15 16 17 17 17 17 18 19 18 18 18 19
10 15 17 15 9 5 1 1 3 2 2 4 5 2 1 1 1 1 3 4 2 8 12 12 11 6 2 6 5 6 7 3 1 2 1 8 18 19 23 21 20 30 31 28 27 26 26 27 27 27 27 27 27 27 29 28 27 26 24 21 20 19 16 17 18 20 21 16 13 13 14 15 17 18 19 20 20 19 19 19 19 19 18 17 17 16 16 16 16 16 16 18 19 19 19 19 21
12 16 18 13 4 2 0 1 3 4 5 7 6 4 0 1 2 2 5 5 5 10 11 11 7 3 2 2 4 5 3 3 2 1 2 10 12 14 22 21 22 30 32 29 27 26 26 27 27 27 27 28 28 28 29 29 27 26 25 23 21 19 16 16 16 19 20 17 16 14 14 14 16 19 19 20 20 19 19 19 18 18 17 17 17 16 15 14 15 15 17 18 19 20 20 21 23
13 18 17 8 2 2 2 1 2 6 8 6 4 5 3 2 3 5 6 5 8 8 8 11 6 2 4 6 6 4 3 3 3 3 2 7 8 14 20 21 26 30 32 30 27 27 26 27 26 27 28 28 28 28 30 30 27 27 26 24 22 20 17 16 15 18 18 18 19 17 16 14 15 18 18 19 19 19 18 17 16 15 16 16 15 14 14 14 14 15 17 18 20 21 21 22 22
13 16 12 3 1 1 2 1 1 5 8 5 2 4 5 3 2 6 6 7 8 6 7 8 5 2 4 5 3 2 3 4 3 5 4 5 9 17 21 24 28 30 32 31 29 27 25 26 25 27 28 27 28 28 30 30 28 27 26 24 23 21 18 16 15 16 17 18 18 18 18 15 14 16 17 17 17 17 17 16 15 14 15 15 14 14 13 13 14 15 17 18 20 22 22 22 22
13 12 7 1 0 0 2 1 2 4 4 4 3 2 4 4 2 5 6 8 6 4 6 7 6 4 2 2 3 4 4 2 1 4 3 4 10 19 24 27 28 29 31 30 30 27 25 26 24 26 28 27 27 28 30 30 29 28 27 25 24 22 19 17 16 15 16 17 16 17 19 18 15 14 16 16 15 15 16 15 14 14 14 14 13 13 13 13 14 15 17 17 19 21 22 22 22
11 7 2 1 1 1 2 2 4 4 3 4 5 3 5 5 2 4 4 6 5 6 6 8 9 3 1 1 2 7 12 7 2 4 5 6 13 20 24 26 27 28 29 28 30 28 25 25 24 25 27 26 27 28 30 31 29 28 27 26 25 23 21 18 16 15 16 16 15 16 18 18 17 15 15 16 15 15 14 15 14 13 13 13 13 12 13 13 13 14 16 17 19 21 21 21 21
9 4 0 2 1 1 1 2 3 3 3 3 3 4 6 6 3 2 1 2 4 7 7 9 11 2 2 4 2 6 16 13 5 6 7 8 15 19 22 24 27 27 27 27 29 28 25 25 24 25 26 26 26 27 29 31 29 28 27 26 26 23 22 20 18 16 16 16 15 15 16 17 18 17 16 16 15 15 14 14 14 13 12 12 13 12 12 13 13 13 14 15 17 18 20 20 19
5 1 0 1 2 0 1 2 2 3 3 4 3 4 5 5 3 2 0 1 3 7 7 8 10 2 2 5 4 3 12 14 7 7 8 8 13 18 21 24 26 26 25 26 28 28 25 25 24 24 25 25 26 26 28 30 29 28 27 26 26 25 23 21 19 17 15 16 15 15 16 16 17 17 17 17 15 14 13 13 13 13 13 12 13 12 12 13 12 13 13 13 14 14 16 19 18
2 0 1 1 2 2 2 2 3 2 4 6 6 5 5 4 3 3 2 1 2 5 7 6 6 4 2 3 3 2 8 13 9 7 11 9 10 15 20 23 24 24 23 24 26 27 26 24 24 25 25 25 25 25 27 28 29 28 27 26 25 25 25 22 20 18 16 15 14 15 16 16 16 15 16 17 17 15 13 13 12 11 12 11 12 12 12 13 12 13 12 11 12 12 13 16 18
1 1 1 1 2 4 5 4 3 2 3 4 5 6 5 4 3 2 3 2 2 3 6 5 4 5 3 2 2 4 9 13 11 10 13 10 8 9 19 25 23 22 21 22 24 26 26 24 24 24 25 25 24 25 27 27 29 28 27 26 24 25 25 24 22 19 17 15 14 15 16 16 15 15 15 16 17 16 15 14 13 12 11 10 11 11 11 12 13 13 12 11 11 12 12 13 16
1 1 1 2 3 4 4 3 3 2 2 4 6 6 6 6 4 3 5 4 2 3 5 2 1 3 2 1 1 4 12 17 13 10 12 11 9 7 16 25 23 22 20 19 22 25 25 23 22 23 24 24 24 25 26 27 27 27 27 26 25 24 24 25 23 20 19 16 15 15 15 15 15 14 14 14 14 16 17 16 15 14 12 11 10 11 10 11 12 13 12 11 11 11 11 10 12
1 2 2 2 2 3 3 2 3 3 2 5 7 5 7 7 7 5 4 4 3 2 2 3 1 2 1 0 1 3 9 15 15 8 9 11 11 9 11 23 24 23 20 19 20 22 23 22 21 21 22 23 24 26 26 27 26 26 27 27 26 25 24 24 24 22 20 18 16 15 15 15 14 13 12 12 12 13 15 16 16 16 14 13 11 10 9 10 10 11 12 12 12 11 11 9 10
1 1 3 2 1 3 3 2 3 4 3 5 4 5 8 6 7 7 4 5 7 4 2 3 2 2 1 1 1 2 5 13 16 9 6 8 12 9 11 22 25 24 21 20 20 21 22 22 22 21 20 20 23 26 26 26 25 25 26 27 26 25 24 24 24 23 21 20 17 16 15 15 13 12 12 11 10 11 13 15 16 16 15 14 13 11 10 10 9 10 11 12 12 12 12 12 13
2 0 2 2 1 2 3 3 4 5 4 4 5 6 7 4 5 8 7 7 7 2 3 2 3 1 1 1 2 1 7 12 13 12 8 5 10 10 13 21 25 25 22 21 22 22 23 23 23 22 22 21 21 22 23 24 24 24 24 26 27 26 25 25 24 23 22 21 19 17 16 16 14 12 12 11 9 9 11 13 15 15 15 15 14 12 11 11 10 11 13 14 13 14 14 14 14
2 1 1 2 2 2 3 4 5 5 3 3 5 8 7 2 4 5 5 6 3 1 3 3 3 3 2 3 2 3 10 10 7 9 8 4 7 10 12 17 21 24 22 22 23 23 23 24 25 24 25 24 22 22 22 23 24 24 24 25 27 27 26 25 23 23 23 22 21 20 17 16 16 14 13 12 10 9 10 12 13 15 14 15 15 12 11 11 11 11 12 14 14 15 14 13 12
2 1 1 2 2 2 3 4 4 4 2 3 5 8 8 3 4 2 0 4 4 2 3 2 2 2 2 3 2 7 10 6 5 6 4 4 3 6 7 10 12 18 22 22 22 23 24 26 26 27 27 27 25 24 23 23 24 24 24 24 25 26 25 25 24 24 23 22 22 21 20 17 16 17 15 13 12 9 9 10 12 14 14 14 15 13 11 12 12 12 12 12 13 14 13 12 11
2 1 2 3 2 2 3 4 4 3 4 5 6 8 8 5 5 3 2 3 4 1 2 2 1 3 5 6 3 5 5 4 4 4 4 5 2 2 5 4 3 8 18 20 22 22 24 26 26 27 28 28 27 25 25 24 24 24 24 24 25 25 24 24 24 24 23 23 23 22 21 20 18 18 17 16 14 11 9 10 11 13 15 14 15 15 13 12 11 11 11 11 12 13 14 13 12
3 2 2 4 3 3 3 3 3 3 5 6 7 7 6 6 7 5 3 3 4 2 3 3 3 4 7 8 4 1 2 4 4 4 4 5 4 3 1 3 4 2 8 14 19 21 22 24 25 27 28 28 27 26 25 26 25 25 25 24 25 25 23 23 22 22 22 23 24 23 22 21 20 19 19 18 15 13 11 10 10 12 15 16 16 16 15 13 12 11 11 11 12 13 14 14 13
3 2 2 5 4 4 4 3 5 3 5 8 6 6 5 3 6 5 3 4 5 5 4 3 5 6 6 7 5 5 1 3 4 5 4 5 6 5 3 6 7 4 5 7 13 20 21 22 24 26 28 28 27 26 26 26 26 26 25 24 25 25 23 23 22 22 22 22 23 24 24 23 23 21 20 19 17 16 14 12 11 11 15 17 16 16 17 16 15 14 13 13 12 12 13 13 14
2 2 3 4 3 3 4 3 3 1 4 8 5 5 4 2 4 4 5 5 3 6 6 7 8 9 8 8 7 7 4 0 3 3 3 4 5 6 5 6 9 8 7 5 7 16 21 21 22 24 26 28 28 26 26 26 26 26 25 25 25 25 24 24 23 23 23 23 24 24 25 25 24 23 22 21 20 18 17 15 14 13 15 18 17 17 17 18 17 17 15 15 14 14 14 14 14
2 2 3 4 2 2 4 3 1 3 4 5 6 5 3 2 3 4 6 5 4 5 7 9 9 8 9 9 8 7 5 2 2 2 2 2 3 7 6 6 8 9 8 7 7 12 19 22 21 22 24 26 28 28 27 26 27 27 27 27 27 27 26 25 24 24 24 23 24 25 26 26 25 25 25 24 22 21 20 18 16 15 16 18 18 17 17 17 17 17 16 16 15 15 15 15 15
2 2 2 4 3 3 3 1 0 4 6 5 5 3 2 2 1 3 5 6 5 2 4 7 6 6 8 7 7 8 7 6 4 4 5 4 4 5 7 8 10 10 9 8 7 9 14 21 22 21 23 24 26 26 27 27 27 28 28 28 28 27 27 26 25 25 25 25 25 25 26 27 27 27 27 26 25 24 23 21 19 17 17 18 18 17 17 16 15 15 14 13 13 13 14 15 16
3 3 2 3 2 5 4 3 2 5 6 3 3 2 2 4 2 1 4 7 6 3 3 1 1 4 6 5 5 6 6 7 8 9 8 7 8 7 7 8 10 12 12 9 9 10 11 17 22 22 23 24 25 26 27 28 28 27 27 28 28 28 28 27 27 26 26 26 26 26 26 28 29 29 28 27 28 26 24 23 21 19 18 18 18 17 17 16 15 14 13 12 11 11 11 12 13
4 5 3 1 1 3 3 4 3 4 4 2 4 2 3 4 1 2 5 8 6 3 2 3 3 3 4 4 4 3 4 5 8 10 10 10 11 10 10 11 10 12 13 11 10 12 10 11 17 21 24 23 23 26 28 27 27 27 26 27 28 28 28 28 28 28 27 28 28 28 27 28 30 30 30 29 29 27 26 25 23 22 20 19 18 18 17 16 16 15 14 14 12 12 12 12 12
6 6 3 1 1 2 2 3 3 3 3 3 3 2 5 3 2 4 7 9 7 4 1 2 4 3 3 3 4 3 4 5 7 10 12 12 12 12 13 14 13 12 11 11 10 10 9 10 12 15 22 23 20 21 26 28 26 27 26 26 26 27 28 29 29 30 29 29 30 30 30 29 30 30 30 30 29 28 27 28 27 25 22 20 19 18 18 18 17 17 16 15 14 13 13 13 12
4 6 3 2 1 2 1 2 4 1 1 3 4 4 5 3 2 4 5 5 5 5 4 2 3 4 4 4 4 4 4 6 9 11 11 12 12 14 16 16 15 13 11 12 12 9 8 12 12 12 16 20 20 18 21 25 24 25 26 25 25 27 27 29 31 31 31 31 31 31 31 30 30 31 31 30 30 29 29 30 30 28 25 23 20 19 19 18 17 17 16 15 14 14 13 13 13
2 5 3 1 4 3 2 2 4 1 1 4 6 3 5 2 3 7 3 1 1 5 5 4 5 5 4 5 5 4 5 8 11 10 9 12 14 16 18 18 17 15 13 13 13 12 10 11 14 14 13 13 18 19 17 19 21 23 26 26 25 26 27 29 31 32 32 32 32 32 32 31 30 31 31 30 30 31 31 31 32 31 29 25 21 20 20 18 17 17 15 14 14 14 14 15 14
2 5 3 4 7 4 6 3 4 4 2 4 7 1 4 4 9 7 3 0 2 4 2 4 4 5 4 5 5 5 6 9 10 10 12 15 18 19 19 18 18 16 14 13 12 13 11 10 12 14 14 13 14 18 18 19 19 21 24 26 27 26 26 27 28 30 32 32 32 32 32 31 31 31 31 30 31 32 32 33 34 34 31 27 22 20 20 19 18 18 17 16 16 16 16 16 15
1 3 2 2 5 5 6 3 5 6 3 4 7 2 5 8 12 7 3 3 1 1 5 4 3 3 4 4 3 5 6 6 8 11 15 17 19 21 20 18 18 16 14 12 12 13 11 9 11 11 13 15 14 15 19 21 20 20 19 21 25 27 25 25 26 28 29 32 33 33 32 31 32 32 30 29 30 32 33 33 34 34 32 27 23 22 21 21 20 19 19 18 19 19 19 18 16
1 2 1 0 1 4 6 2 7 7 2 4 7 2 6 7 10 8 4 5 4 5 6 5 5 4 4 4 3 5 6 6 10 13 16 17 19 19 20 18 16 16 14 12 13 13 12 10 10 10 10 13 14 15 17 19 19 20 19 17 18 24 27 26 26 27 27 29 30 31 32 32 33 33 32 31 30 31 31 30 29 31 31 27 25 24 23 23 22 21 20 19 20 21 21 19 17
2 2 1 1 3 5 7 2 10 8 2 3 7 2 6 7 8 7 2 4 6 5 5 4 5 4 4 4 3 4 5 7 10 12 14 16 17 17 18 18 16 15 16 15 12 11 12 12 10 9 8 9 11 13 15 14 13 14 19 21 19 19 23 25 25 27 27 26 27 29 30 31 32 32 31 32 32 31 29 28 30 31 31 29 28 26 25 24 24 23 22 20 20 21 21 19 18
3 2 3 2 3 3 5 3 6 6 3 2 4 2 3 5 6 6 4 4 6 4 4 4 4 4 4 4 4 4 5 6 8 10 10 9 11 13 14 15 15 15 15 16 14 10 9 10 10 8 7 7 8 10 12 11 10 10 11 18 23 20 18 18 20 22 25 26 27 27 28 29 31 30 30 30 32 32 28 29 32 32 30 31 30 28 26 27 26 26 25 23 21 22 21 20 19
2 1 3 3 3 3 2 3 3 3 4 5 4 3 5 6 5 7 6 3 4 3 5 5 4 5 5 4 4 4 5 5 6 8 8 5 5 8 9 10 12 13 15 16 15 14 10 8 8 6 6 5 6 8 9 8 8 10 7 8 17 21 19 17 17 17 19 22 24 25 26 27 28 28 27 28 29 30 28 28 31 31 30 32 32 30 29 28 28 28 27 25 23 23 23 22 21
5 4 3 3 3 4 4 3 3 4 4 5 6 4 9 10 8 7 6 3 1 5 5 4 5 5 5 5 4 5 5 6 7 10 10 9 7 7 8 9 9 10 12 15 15 15 14 11 9 8 7 7 6 7 8 9 9 9 9 7 10 15 19 19 20 19 17 17 19 21 24 25 27 27 25 25 27 28 28 29 30 30 30 32 33 32 31 30 29 29 28 27 26 25 24 23 21
8 6 4 5 4 4 5 4 5 5 5 5 8 7 9 11 9 8 7 2 1 6 5 5 6 5 6 5 5 5 5 7 9 12 13 13 12 10 9 9 10 9 10 11 13 14 15 15 14 13 13 12 11 10 9 10 11 11 10 10 11 13 13 13 16 19 19 18 18 18 20 22 26 28 27 25 26 28 28 28 29 29 30 30 32 34 34 33 32 31 30 29 27 25 24 22 19
6 5 4 4 4 4 4 4 5 2 5 5 6 7 9 9 9 9 6 3 1 6 6 7 7 6 6 6 6 7 6 7 8 12 14 14 14 13 12 10 10 11 10 9 10 11 12 12 13 13 14 15 16 15 13 12 12 12 11 11 13 13 12 11 10 12 15 18 19 21 20 20 22 26 29 28 28 30 30 29 29 30 30 29 30 33 34 34 33 32 32 30 27 25 24 23 20
5 5 5 2 3 4 4 3 5 3 3 4 1 4 9 9 9 9 6 3 4 7 7 8 9 8 7 6 7 7 6 7 7 9 11 12 13 14 13 12 10 10 10 10 10 10 11 11 12 13 13 14 16 17 18 17 16 15 14 13 14 14 13 13 13 11 10 12 16 21 23 22 23 23 26 29 29 30 31 31 30 31 31 30 30 31 32 32 33 32 32 29 27 26 25 23 21
4 3 4 2 3 2 4 4 5 4 2 4 1 2 8 9 9 9 7 6 7 8 8 8 8 7 7 6 7 7 7 8 8 7 7 9 10 11 12 12 10 9 10 11 11 11 11 12 13 14 15 15 16 17 19 20 20 19 18 16 14 15 15 15 16 15 14 13 14 18 22 26 27 24 22 25 28 30 31 32 33 32 32 32 32 32 33 33 32 33 32 30 26 24 24 23 23
3 3 4 2 2 2 2 4 4 3 1 1 1 2 6 7 8 9 10 8 7 7 6 5 5 7 8 7 6 7 8 9 8 7 5 5 6 7 8 10 10 9 9 10 12 13 14 14 15 15 16 16 16 17 18 19 20 20 20 19 17 17 17 16 18 18 18 17 17 18 20 22 24 22 22 25 27 27 29 30 33 35 34 34 34 34 34 34 33 33 32 30 26 23 22 22 23
2 3 5 3 3 4 3 2 1 4 4 2 1 4 5 6 8 10 8 4 5 6 6 7 7 7 7 7 7 7 8 7 7 7 6 5 5 6 6 8 10 11 10 10 11 12 13 14 15 15 15 15 15 16 17 17 18 18 18 18 17 17 16 16 17 19 20 20 20 20 19 19 20 21 25 30 29 28 29 29 30 34 34 33 34 34 34 33 33 33 31 29 27 23 21 19 19
3 3 6 6 6 5 2 3 4 4 4 2 1 3 6 5 6 9 6 2 3 3 4 7 8 7 6 6 7 7 6 6 5 6 6 5 6 6 8 9 10 12 12 12 12 11 12 12 13 14 14 13 13 14 15 16 16 17 17 15 15 15 15 16 18 20 21 23 22 22 21 20 21 22 26 30 31 29 30 29 27 28 28 27 29 30 31 31 32 32 31 29 26 22 19 16 14
1 4 7 6 6 6 6 5 4 1 3 2 2 3 5 6 3 6 4 3 3 4 4 6 7 6 5 5 6 7 7 6 5 6 6 7 9 10 11 13 13 13 14 14 14 13 12 12 12 12 13 13 12 13 14 15 14 15 16 16 16 16 17 18 19 20 21 23 23 22 21 22 22 23 24 25 28 28 26 24 22 20 19 21 24 24 24 26 26 26 25 24 21 19 18 15 14
2 3 4 6 6 6 7 7 4 2 2 3 3 3 3 5 5 5 3 3 6 6 6 7 5 6 7 7 8 9 9 8 7 7 10 11 15 17 18 20 21 20 22 23 23 22 20 18 16 13 11 12 12 13 13 13 13 14 16 17 17 18 18 19 18 19 20 21 22 22 22 23 23 23 23 23 25 24 24 25 21 18 20 21 19 17 17 18 19 19 18 19 18 18 19 18 16
4 2 6 5 5 5 5 6 2 1 2 3 4 1 1 5 6 5 4 3 3 5 6 5 7 9 11 11 11 13 13 12 12 12 13 15 20 25 25 26 29 31 32 32 31 29 28 26 23 20 19 19 18 17 16 15 13 14 15 17 17 17 17 18 18 18 19 19 20 20 21 23 24 24 24 24 25 24 25 26 23 21 23 21 16 13 13 14 15 16 16 18 21 21 20 19 18
3 5 8 6 6 5 5 5 3 4 2 6 7 3 2 5 4 1 3 2 2 6 3 5 9 10 11 12 13 14 13 13 14 14 16 19 23 26 28 31 34 36 37 37 35 34 32 31 29 26 26 25 23 22 21 19 16 15 15 16 17 18 17 16 16 17 18 19 19 19 20 22 24 24 24 24 25 25 25 25 23 23 25 22 17 13 14 16 17 17 17 17 20 21 19 18 17
5 6 7 7 7 5 4 3 4 4 3 8 7 7 5 4 3 3 2 1 3 3 3 7 8 11 12 12 13 14 14 13 14 15 18 24 28 30 33 33 34 36 38 39 38 36 35 35 33 30 29 28 27 26 24 22 20 17 16 15 16 17 17 17 17 17 17 18 19 20 21 22 24 25 25 25 25 26 26 25 24 25 27 24 19 17 20 23 23 22 18 15 15 16 16 16 14
6 4 5 4 4 5 5 5 4 2 7 6 5 8 7 4 5 2 1 4 5 4 7 8 10 12 12 12 13 13 13 13 14 14 16 21 26 31 34 33 33 35 37 37 37 37 36 35 34 33 32 31 30 29 27 25 21 18 17 16 16 16 17 17 18 19 20 20 21 21 22 23 24 25 26 26 26 26 26 27 27 28 30 28 24 24 26 28 27 24 22 19 17 16 16 17 17
4 5 6 4 1 3 1 3 1 3 7 4 3 4 4 6 5 3 6 8 10 9 9 9 11 11 11 12 12 11 11 12 13 13 14 15 18 24 28 29 31 33 34 35 34 34 34 34 34 33 33 33 32 31 30 27 23 19 16 16 16 16 16 17 18 20 22 22 23 23 23 24 25 26 27 27 26 27 28 29 30 31 30 29 28 27 29 30 28 27 27 25 22 21 21 20 18
5 6 6 5 4 2 3 4 1 4 5 3 2 4 2 5 3 7 9 9 10 11 11 10 11 12 11 11 10 11 12 12 12 12 12 12 15 20 23 26 28 29 34 37 37 35 32 33 35 33 33 34 33 33 32 30 26 20 16 15 15 15 16 17 18 20 21 22 23 24 25 26 26 27 27 27 27 28 30 30 30 30 29 28 28 29 30 29 29 28 27 25 24 23 22 19 17
3 4 5 5 6 5 5 5 3 4 3 2 1 2 2 4 2 6 7 9 10 11 11 10 11 10 9 10 11 13 13 12 11 11 12 13 17 19 20 24 28 30 33 36 38 38 34 32 35 35 34 35 35 34 33 32 29 24 19 16 15 15 16 17 18 20 21 22 23 24 26 26 26 26 25 25 25 26 28 27 28 28 27 26 26 27 28 27 26 26 24 23 23 23 22 19 18
1 2 4 3 5 5 3 4 6 4 1 1 2 1 2 4 6 5 5 8 10 11 11 12 12 10 9 11 12 12 11 11 11 11 12 15 19 20 19 22 26 29 36 39 37 39 37 33 34 36 35 36 36 35 34 32 30 27 22 18 16 15 16 17 18 19 20 22 23 24 25 26 26 25 24 24 24 25 25 26 26 26 26 25 25 25 25 25 25 24 24 23 22 23 22 20 20
1 2 3 4 2 5 3 3 3 3 1 3 3 2 1 5 5 3 5 10 11 11 12 12 11 11 12 11 10 11 10 10 11 11 12 16 20 22 21 21 23 25 32 40 38 35 36 35 34 36 37 38 38 37 36 33 30 28 25 21 18 16 15 16 18 18 19 20 21 22 23 25 25 24 23 23 24 24 24 24 25 25 25 26 26 26 26 27 26 25 24 23 22 22 21 21 21
4 2 4 1 2 3 3 2 1 2 3 4 4 6 6 5 4 2 6 10 10 10 10 10 10 11 11 10 9 10 9 9 10 11 13 17 20 23 23 23 25 25 27 35 37 34 35 36 35 35 36 38 39 38 37 35 32 29 27 24 20 18 16 16 17 17 17 18 18 20 22 24 24 24 24 23 23 24 24 24 25 25 26 25 25 25 25 26 27 26 24 22 21 21 21 20 20
3 2 1 3 1 1 2 3 2 3 5 4 4 7 6 3 3 3 6 8 8 8 8 9 11 11 9 9 9 10 10 9 10 10 11 15 19 23 24 24 27 29 29 33 36 37 38 38 38 36 34 35 38 39 39 36 33 30 27 25 22 19 18 17 17 17 17 17 18 20 22 23 23 23 23 23 23 23 24 25 26 25 24 23 22 22 22 23 23 23 22 20 20 21 21 20 19
3 2 3 3 3 2 2 3 1 2 5 4 4 6 2 1 1 6 8 7 6 6 7 9 9 9 8 8 9 9 10 10 10 10 10 14 19 21 23 24 26 29 31 33 36 37 38 37 38 40 38 35 36 40 41 39 36 31 28 26 23 20 18 17 16 16 17 18 19 20 21 22 22 22 23 23 24 24 25 26 26 25 23 23 22 21 20 20 20 19 19 19 19 20 20 20 20
3 3 3 3 1 0 0 1 1 2 3 4 5 5 1 1 3 7 8 6 7 6 7 7 7 8 8 8 8 8 9 9 10 10 11 15 19 20 22 23 24 26 29 34 35 34 37 38 37 41 42 37 35 38 40 40 38 33 28 26 24 20 18 17 16 16 17 17 18 19 20 21 21 22 22 22 23 24 25 25 25 25 25 25 24 22 21 20 19 18 18 19 19 19 20 20 20
1 1 0 1 1 1 1 3 2 1 2 2 4 4 1 2 4 6 7 6 6 6 7 6 6 8 8 8 9 9 9 10 10 10 12 16 19 20 21 22 23 25 26 30 32 32 38 41 37 38 43 41 35 34 37 39 38 34 29 25 23 20 18 17 15 15 16 17 18 18 18 20 20 20 21 22 23 24 24 25 25 25 25 25 24 22 21 20 20 19 19 19 20 20 20 20 21
Wind_Direction
146 152 151 147 139 140 200 73 100 59 105 194 276 259 246 11 301 316 335 339 335 318 330 316 300 292 284 134 141 112 70 99 165 143 196 198 146 156 167 170 173 170 172 174 172 169 166 166 167 167 168 167 164 161 163 163 160 156 153 152 147 146 148 149 145 138 137 133 130 128 128 131 131 133 133 132 134 135 135 136 137 137 137 137 139 141 139 140 143 145 141 141 139 131 127 126 123
145 154 155 147 130 131 219 13 110 134 122 209 238 219 238 7 325 317 307 312 310 304 314 309 297 294 93 131 147 82 50 16 160 158 67 125 137 152 169 175 176 171 173 176 174 171 169 168 169 169 169 168 165 163 165 165 163 159 155 154 150 149 148 147 147 143 140 137 134 129 125 127 128 127 130 131 131 132 132 133 133 132 133 136 140 142 143 144 146 146 142 140 137 131 130 129 125
143 151 148 139 96 39 114 28 119 152 181 209 220 213 217 56 253 270 261 266 296 304 311 315 312 309 353 62 7 34 50 334 59 52 77 128 134 151 170 178 175 173 174 176 176 172 171 172 171 172 170 169 167 165 167 167 165 162 158 156 153 150 150 147 147 146 142 142 141 133 127 125 127 126 128 130 130 132 131 131 131 132 134 137 139 139 140 142 143 144 142 142 138 133 133 131 125
142 151 145 130 54 20 88 75 132 163 198 205 207 210 193 169 237 274 267 281 308 315 326 330 343 1 22 49 1 25 60 335 14 25 113 141 143 155 170 178 173 172 173 176 178 173 174 176 173 173 172 171 168 167 168 168 168 166 162 159 157 152 151 150 150 148 143 148 148 140 134 129 129 129 132 132 132 134 132 132 131 131 129 130 131 133 137 139 140 139 142 145 140 135 134 131 125
144 154 158 150 77 89 120 114 138 179 204 185 174 195 174 182 241 281 293 309 313 327 339 343 342 335 44 49 345 16 2 316 10 40 119 142 139 156 170 173 171 170 171 175 178 176 177 177 176 174 173 173 170 168 169 170 170 168 166 163 160 155 153 153 153 152 146 149 150 145 140 135 133 132 135 137 138 139 137 136 134 130 124 124 127 129 133 137 139 139 144 146 140 138 137 133 127
145 153 172 218 117 77 121 136 190 202 221 161 166 166 160 186 232 279 309 323 322 336 339 3 337 300 76 41 37 26 336 301 22 40 111 135 136 158 168 169 170 169 172 176 178 178 178 178 179 176 174 175 171 170 171 172 172 170 170 167 164 159 155 156 156 155 149 146 145 146 144 140 140 137 138 141 142 141 141 140 137 135 129 127 126 127 131 133 139 142 147 148 143 143 142 137 131
153 148 165 123 109 349 121 201 203 202 246 172 168 154 172 185 201 277 328 342 340 349 345 0 335 306 76 318 78 14 17 38 30 55 85 112 131 157 168 169 168 168 172 177 180 179 179 179 180 178 176 176 173 172 173 174 174 173 173 171 168 164 159 159 159 158 152 144 144 147 146 145 146 145 143 143 145 143 143 143 139 139 137 133 127 127 129 131 139 144 149 152 149 148 148 141 134
165 151 337 125 105 353 146 213 206 189 231 197 160 153 177 176 165 251 4 8 324 331 333 343 338 358 359 1 80 2 20 31 41 78 76 103 130 155 168 170 166 166 172 177 180 179 179 181 180 180 179 179 176 174 175 176 176 175 177 175 173 170 165 163 162 163 158 147 146 149 148 149 149 150 151 149 148 147 147 146 144 143 141 139 134 132 132 133 140 143 149 156 152 149 151 149 141
171 142 152 132 114 254 245 204 199 191 202 199 194 167 171 170 156 190 176 271 296 316 321 335 340 1 309 14 59 354 11 14 34 80 56 79 133 156 167 170 166 164 171 177 180 181 181 182 181 182 181 180 178 176 176 176 178 179 180 179 177 176 171 168 167 169 167 154 149 152 150 151 153 153 154 153 151 151 151 149 149 148 144 146 145 142 142 141 140 142 147 157 155 150 155 157 151
171 25 156 152 122 191 247 214 197 192 195 197 208 194 174 168 159 179 177 232 297 312 319 333 350 6 322 11 31 334 356 1 21 43 28 49 120 151 170 171 166 163 168 176 180 183 183 183 184 184 183 182 180 179 177 177 180 182 183 183 180 180 177 173 171 173 172 161 156 157 152 151 156 158 157 155 156 156 155 155 156 156 155 156 157 155 152 149 145 143 147 155 156 157 161 161 158
162 243 166 147 139 199 223 215 212 204 191 190 218 212 193 172 159 196 184 228 286 287 312 343 1 350 345 61 8 324 358 10 15 3 7 30 77 128 170 170 166 162 163 172 180 186 184 183 185 185 184 183 184 182 179 179 183 184 185 186 184 183 181 178 175 177 176 169 165 162 156 153 154 159 160 159 160 160 160 165 165 162 164 164 166 168 164 162 159 151 150 156 159 164 169 168 164
159 181 155 181 184 208 208 203 218 202 154 173 214 212 188 178 179 204 188 208 244 269 304 20 353 324 343 87 249 327 5 13 7 350 3 22 35 67 162 169 170 167 162 163 175 185 185 184 187 187 185 184 185 184 183 182 184 187 188 189 188 186 185 183 180 181 180 177 175 169 164 159 155 158 163 165 166 165 165 169 171 169 169 170 172 174 173 173 170 162 160 162 163 166 171 175 169
173 165 154 198 182 183 175 190 208 178 181 199 211 185 165 180 199 208 179 201 208 246 278 156 196 347 357 239 249 326 4 3 359 356 4 17 21 32 152 170 174 174 167 160 167 180 185 186 189 190 187 186 186 184 185 185 186 189 192 192 192 191 189 186 184 185 185 184 183 179 174 168 164 161 163 168 170 171 170 169 171 175 173 174 180 182 181 176 174 168 167 170 170 169 171 172 172
203 178 174 229 141 161 169 171 175 183 226 208 194 155 162 183 201 204 186 227 230 203 177 165 165 23 294 267 321 316 354 355 357 1 358 17 24 36 149 169 177 177 171 167 166 174 183 187 190 193 192 192 190 187 185 184 188 190 193 194 194 194 193 191 187 187 190 190 191 189 184 178 175 172 169 169 172 174 174 174 173 175 175 176 182 188 186 178 175 169 170 178 176 174 176 180 185
202 120 167 238 227 181 182 181 175 190 234 193 176 153 164 190 175 195 201 220 246 184 147 163 160 188 235 212 195 280 336 343 350 355 355 10 34 64 143 164 175 177 174 174 173 175 182 186 190 194 196 195 193 192 188 185 190 192 193 196 196 197 196 195 190 190 193 195 197 197 193 186 184 185 183 178 175 177 176 180 180 178 178 178 181 185 188 188 183 176 178 182 182 183 184 190 194
171 133 163 230 220 198 190 182 175 187 234 189 164 144 154 206 158 187 208 198 247 125 166 173 171 206 173 187 199 349 335 333 332 345 359 350 33 71 127 154 167 175 177 179 179 181 184 187 189 193 196 196 195 194 192 191 193 194 195 198 199 199 200 199 195 194 195 198 202 202 201 194 192 194 197 192 184 184 181 183 186 187 189 183 183 185 187 193 194 188 187 188 191 194 193 200 201
124 136 211 229 193 203 197 177 180 174 190 155 147 154 160 186 167 181 79 169 214 200 196 182 160 214 187 193 298 346 340 336 315 324 355 332 11 67 109 146 161 168 175 182 184 185 187 190 191 194 195 195 195 195 196 194 193 195 197 198 199 200 200 201 199 197 195 199 203 205 205 201 200 199 201 202 193 190 187 187 189 194 198 189 187 190 186 189 195 195 196 197 199 201 201 208 209
154 192 218 231 184 201 199 184 197 155 162 170 166 173 167 165 167 170 103 160 213 241 265 241 164 235 247 254 290 351 1 9 335 329 323 327 355 64 100 150 216 170 173 181 185 188 190 193 196 196 196 195 196 197 198 195 194 197 197 197 199 199 197 198 199 198 198 201 204 205 206 206 206 205 204 205 199 195 195 194 191 194 200 196 191 192 190 190 195 197 199 200 198 200 203 205 208
186 183 200 228 204 216 223 209 219 171 162 169 174 179 174 170 161 164 174 182 190 209 267 251 245 236 238 253 243 181 48 37 17 9 327 321 324 321 87 190 275 219 179 181 184 191 193 197 199 199 197 197 197 198 199 198 197 198 198 200 201 198 194 196 200 202 204 206 205 205 207 209 209 210 208 207 204 199 200 201 197 194 198 201 198 195 195 195 198 199 199 200 198 199 200 201 203
197 171 199 232 219 244 281 256 233 219 152 157 178 179 176 178 149 158 182 167 177 201 220 210 240 234 208 220 195 175 175 32 22 18 351 318 305 295 278 254 280 273 214 197 188 191 196 200 202 201 199 198 199 199 200 200 200 200 199 201 202 200 197 199 203 206 208 209 209 207 206 210 212 213 211 208 208 204 202 200 199 196 196 203 204 200 198 198 200 200 201 204 205 205 205 206 207
181 175 201 228 211 235 292 294 223 141 132 157 162 155 179 194 143 165 161 150 202 223 216 198 213 216 192 192 176 164 174 348 353 1 354 327 290 275 262 251 274 275 242 237 209 197 198 203 204 202 200 201 201 201 202 203 203 203 202 201 201 203 203 204 204 207 212 212 212 209 206 209 213 215 215 209 206 206 204 199 200 198 197 204 207 206 203 202 206 207 210 217 220 221 220 219 217
170 218 217 229 205 221 277 312 119 91 84 122 134 154 175 128 142 183 169 174 215 221 221 213 211 202 186 184 171 155 156 181 306 306 289 301 272 266 263 254 263 266 249 238 231 213 203 203 205 204 203 204 205 206 208 209 208 207 206 204 204 205 207 209 208 208 212 214 215 213 209 211 213 216 216 211 208 206 205 204 203 201 200 204 208 208 206 205 208 211 217 226 230 231 229 228 226
181 247 257 254 223 209 232 247 138 97 95 119 152 172 122 108 230 209 189 214 229 240 249 228 217 190 183 178 165 161 163 175 206 243 241 231 245 257 266 276 269 262 255 236 230 229 213 205 204 204 205 207 209 211 212 212 211 211 211 210 209 208 209 211 213 212 213 216 218 218 214 212 213 217 214 210 212 208 205 208 206 204 204 205 208 207 206 206 206 209 215 221 227 230 229 226 224
197 228 263 288 217 193 188 172 160 100 118 160 147 107 123 174 230 291 218 237 251 293 339 285 179 153 164 165 174 179 171 174 189 214 237 249 252 255 264 278 280 276 266 248 232 227 220 212 209 206 205 206 209 212 214 214 213 213 213 214 214 213 212 212 215 215 216 217 219 220 220 216 216 220 217 213 214 209 206 210 209 208 208 207 208 207 206 203 198 199 200 202 204 205 205 203 202
219 220 239 310 293 200 175 153 144 121 135 122 100 125 229 208 222 308 241 242 254 267 16 56 72 106 148 171 201 194 172 181 190 206 232 255 263 267 264 264 275 282 268 255 240 224 225 229 223 217 211 208 210 210 211 215 215 215 214 214 217 218 218 218 218 217 217 218 220 221 221 221 220 220 219 217 215 211 209 211 211 211 211 209 208 205 202 196 190 188 187 189 188 184 182 180 183
220 199 202 162 345 281 195 167 173 167 152 118 124 228 272 269 302 286 244 238 238 214 181 101 99 133 185 212 226 215 198 196 196 204 220 238 256 267 265 262 264 272 266 254 241 227 229 240 240 231 223 223 224 214 211 214 214 214 215 215 217 221 223 225 223 221 218 216 219 221 221 224 224 222 219 218 218 218 215 213 212 212 211 209 208 205 197 191 189 185 183 188 189 189 189 186 191
201 173 167 153 358 315 243 221 233 232 178 162 176 239 285 320 302 256 247 257 237 205 223 198 145 185 207 232 245 238 227 218 214 212 219 229 239 252 260 262 258 260 260 251 244 233 232 237 239 240 235 236 236 223 213 219 223 218 216 215 219 224 226 228 228 226 223 219 217 218 220 222 226 227 224 221 219 220 218 215 213 212 210 208 208 206 197 192 192 189 187 189 192 197 198 197 201
131 139 148 276 340 302 242 270 258 213 227 181 154 234 297 353 252 232 209 4 106 173 224 225 194 211 211 226 244 245 242 241 235 220 216 228 230 237 248 254 256 257 254 252 250 240 242 245 240 241 246 244 231 223 211 215 225 224 221 220 223 228 230 231 229 226 224 221 219 219 221 221 224 228 230 229 224 218 218 219 216 212 209 207 207 205 201 197 196 196 196 196 198 201 204 204 204
104 112 150 293 353 300 234 226 217 172 203 175 132 328 297 223 232 228 170 284 61 114 251 259 222 222 213 221 236 243 247 249 244 227 224 233 235 235 238 245 250 255 254 252 251 244 244 240 236 239 246 248 230 223 216 208 214 218 220 224 225 228 231 232 229 226 224 222 221 223 225 223 222 226 229 230 225 219 220 221 218 214 209 206 206 204 203 202 202 204 204 206 208 206 206 206 207
119 90 126 296 4 302 249 203 176 168 189 162 140 253 273 239 243 242 198 225 245 267 265 263 260 257 234 235 246 261 264 257 250 242 238 238 239 239 237 239 241 247 250 248 244 242 243 232 230 237 244 248 240 230 222 217 220 217 214 219 222 224 226 227 227 226 225 224 225 227 227 224 223 225 225 224 220 218 219 218 216 215 212 207 205 204 203 205 208 212 213 214 213 209 208 209 215
124 110 95 165 163 269 280 217 162 168 214 142 128 224 262 263 268 271 243 190 177 234 249 247 263 275 277 289 286 279 280 267 260 256 251 248 245 241 239 238 238 239 238 240 239 236 236 232 232 237 240 243 245 246 235 227 230 226 222 222 218 219 221 223 224 225 226 225 225 226 227 226 225 226 226 226 223 219 216 216 216 217 215 210 208 206 205 209 213 217 220 214 206 205 209 213 221
67 153 257 294 183 258 303 246 168 170 219 128 127 205 263 268 279 297 318 142 156 211 239 246 255 264 274 281 267 265 279 286 285 273 262 256 251 244 241 239 237 237 234 235 240 234 226 223 226 228 228 235 242 248 247 241 241 236 235 237 231 217 215 218 219 221 225 226 226 226 226 228 229 229 229 229 226 221 219 221 221 217 215 213 211 209 210 213 213 214 213 210 202 201 208 215 223
359 162 220 234 186 253 314 291 196 171 123 156 165 187 259 269 281 312 360 105 139 187 252 261 254 255 250 252 262 267 284 302 310 294 272 260 256 251 247 242 235 235 236 236 240 241 222 208 209 212 219 235 243 244 247 247 245 244 242 240 235 225 217 215 215 217 218 219 223 226 228 229 230 231 230 228 224 223 225 224 220 217 216 215 212 209 211 214 212 208 207 211 210 206 209 215 220
295 201 217 230 183 193 274 288 252 156 135 188 196 201 245 266 292 309 330 47 121 193 244 255 249 247 241 244 261 268 282 290 291 289 288 286 273 261 253 249 239 233 236 237 238 241 232 209 201 208 223 238 252 249 246 243 241 243 245 242 236 236 237 227 218 219 216 217 220 223 228 230 230 229 230 228 224 225 226 222 218 217 215 215 213 210 211 214 212 210 210 214 216 216 217 219 223
198 191 193 230 214 204 219 245 228 160 149 185 186 220 253 266 289 294 304 13 134 234 243 258 263 256 258 262 257 255 269 273 265 274 292 303 300 289 267 256 247 235 235 239 239 239 238 234 228 231 241 251 264 262 252 246 246 244 238 233 231 238 246 237 227 226 221 219 222 225 228 229 230 229 228 228 225 223 221 219 219 217 214 214 213 211 212 213 212 214 215 217 219 222 225 228 231
183 185 170 184 204 233 233 247 244 166 144 195 193 210 244 254 269 275 289 6 201 261 282 286 280 275 275 276 269 264 257 256 263 271 284 294 299 306 297 277 261 245 236 240 244 244 244 246 250 252 255 262 269 269 260 248 244 245 238 232 230 227 234 237 233 236 236 230 225 227 228 227 228 228 227 226 224 220 218 218 218 216 214 214 213 212 211 212 213 215 216 218 220 221 227 231 233
147 149 165 187 188 245 253 254 284 135 150 223 204 210 243 252 262 266 285 1 249 257 267 265 264 264 266 268 268 267 258 256 270 277 279 284 290 296 302 300 282 261 245 240 245 252 257 259 263 266 266 264 262 260 257 250 240 238 236 237 242 236 226 222 223 236 251 252 239 231 229 227 227 226 225 225 223 221 218 218 217 214 213 212 212 211 210 213 215 216 216 217 219 219 222 226 227
104 137 166 208 199 234 261 247 303 9 161 245 213 216 254 260 264 270 283 311 253 231 230 244 250 252 258 266 270 268 272 280 282 281 279 284 289 290 296 304 296 274 258 250 250 256 264 269 275 282 283 271 259 253 250 249 246 242 244 248 255 258 246 231 224 223 237 256 253 243 239 239 238 230 223 223 223 222 220 218 216 214 213 212 213 212 211 214 215 215 214 213 216 218 222 225 221
98 116 140 193 220 237 301 299 322 11 170 260 314 231 260 262 264 272 265 252 244 229 219 230 238 250 263 258 264 269 272 278 279 281 289 298 302 298 298 305 306 285 267 261 258 259 263 268 275 282 285 281 268 254 245 245 248 250 253 257 261 266 262 248 239 236 233 235 245 249 249 248 244 238 232 228 224 222 221 220 217 215 214 213 213 213 212 214 214 213 213 213 213 215 221 225 218
115 119 132 210 240 167 272 281 312 9 96 277 352 278 269 265 270 266 254 245 253 264 260 256 238 232 248 247 246 254 255 266 281 290 305 323 322 318 312 314 322 315 295 283 274 269 268 270 276 283 286 286 279 266 252 245 247 248 248 252 256 258 258 253 245 245 244 235 232 238 246 249 241 239 244 238 232 230 226 224 221 216 217 215 213 212 211 211 211 210 212 214 212 209 214 217 216
242 168 155 186 211 190 212 226 260 3 6 50 61 318 286 251 250 253 270 277 256 281 283 270 264 241 252 268 260 254 255 266 281 292 309 331 334 333 328 321 322 325 324 320 310 298 290 285 285 290 293 291 286 278 267 255 249 245 242 242 244 243 243 245 242 240 239 234 229 230 237 240 233 236 243 239 237 239 234 233 226 215 214 213 212 213 211 210 211 211 213 214 212 209 206 205 207
282 229 192 184 177 177 153 118 94 32 338 296 170 287 285 284 254 244 286 326 212 287 292 254 266 263 259 271 271 272 275 274 268 276 294 304 315 321 320 327 332 334 339 341 338 329 315 307 300 295 295 298 297 292 282 269 256 248 242 234 229 229 228 230 231 231 232 231 230 229 229 231 230 234 240 237 236 236 235 236 227 213 209 206 207 210 210 209 210 209 210 211 211 212 205 192 182
305 248 200 171 137 136 141 140 119 105 254 273 110 186 261 315 302 237 275 313 279 336 319 265 269 278 286 294 299 309 309 306 298 295 311 322 331 332 328 344 359 3 9 11 7 2 349 333 320 309 302 302 307 306 295 282 267 255 248 241 235 232 231 231 231 231 234 235 232 229 226 225 226 228 232 232 230 229 227 221 216 216 217 212 209 209 208 210 210 208 208 209 212 213 206 185 163
242 254 152 144 135 147 159 153 153 188 229 327 24 152 247 297 279 267 307 350 339 335 297 285 309 340 2 9 3 1 352 351 352 350 3 6 3 4 360 4 15 22 24 24 21 17 13 9 1 354 347 340 335 329 318 302 284 268 259 253 247 242 240 242 242 238 237 238 236 231 225 220 219 218 218 218 217 220 220 211 210 225 228 221 215 210 211 214 215 214 212 210 208 204 200 187 168
243 193 104 124 134 139 135 123 143 46 65 298 285 171 240 274 270 312 1 59 11 295 274 323 17 24 28 32 27 25 24 28 35 33 29 24 21 22 22 22 23 25 26 25 24 21 17 15 12 10 9 5 0 355 346 334 313 290 273 265 260 256 252 251 251 246 241 241 241 237 231 224 219 214 210 206 204 210 216 214 215 217 211 206 204 206 216 211 201 199 196 194 193 191 193 191 179
200 115 84 61 62 74 73 92 105 45 63 238 239 178 194 267 253 52 41 84 213 251 271 37 45 43 40 37 31 29 30 31 35 36 30 24 22 22 24 26 25 24 27 27 26 24 21 17 12 9 8 5 2 359 354 347 336 318 293 278 271 268 265 259 256 251 246 245 244 242 238 233 228 220 212 206 202 201 204 208 212 208 198 195 196 209 226 215 194 184 179 175 176 174 175 178 173
132 89 67 49 35 33 39 49 74 61 271 241 209 181 184 262 264 186 169 159 214 225 86 67 50 46 43 36 32 28 28 28 27 29 24 20 19 19 20 20 20 20 23 24 24 22 21 18 14 11 8 5 1 356 353 348 342 332 315 295 282 276 271 264 259 256 252 249 247 245 242 239 235 230 225 216 206 199 195 197 205 209 204 202 211 231 236 219 199 188 181 172 167 161 158 162 159
114 86 84 81 4 8 23 356 40 137 250 252 188 179 175 220 257 240 302 8 31 54 77 74 54 48 43 38 35 29 27 28 27 27 22 19 18 18 17 15 13 15 16 16 17 18 18 16 14 12 8 5 1 357 354 349 343 336 326 310 294 286 278 270 263 260 260 256 253 249 245 240 236 233 231 224 211 201 198 199 203 206 205 208 218 227 223 211 202 195 189 185 180 172 166 164 161
101 106 113 123 354 12 12 287 304 214 251 267 190 155 142 229 260 34 36 31 44 58 69 70 61 52 43 37 35 30 29 28 28 28 23 22 20 16 16 14 12 12 11 10 10 11 13 13 13 11 8 6 3 360 358 355 349 341 332 320 305 294 287 279 270 263 261 260 259 254 247 242 238 235 233 231 222 213 210 207 204 202 202 205 210 209 204 202 202 197 189 184 179 175 173 171 170
148 144 144 155 154 142 221 233 252 258 258 250 196 97 90 256 303 49 61 59 60 62 62 61 60 56 47 40 35 32 31 28 28 26 23 23 20 16 16 16 14 10 9 10 9 8 8 10 11 8 7 7 5 2 0 358 356 349 339 327 313 301 293 287 279 270 264 260 260 257 252 246 241 237 235 233 229 224 219 211 204 202 201 199 197 195 193 193 193 191 186 180 175 175 177 178 179
180 161 140 162 173 171 203 206 199 237 256 262 217 99 189 223 103 79 82 72 65 62 60 59 58 54 49 43 37 32 27 22 19 17 18 17 12 12 13 16 17 14 11 11 10 8 6 5 7 7 5 5 5 4 2 359 357 353 345 332 320 311 303 294 286 279 271 264 259 257 255 251 245 239 235 232 227 222 218 212 205 201 198 194 190 186 184 183 184 186 184 180 176 177 181 184 186
230 128 116 184 195 152 161 192 180 179 183 279 219 217 214 139 104 103 93 69 63 61 55 53 50 43 44 41 33 28 21 14 13 11 11 11 9 8 8 10 12 13 15 15 12 10 8 4 1 3 3 2 3 2 2 1 357 354 349 339 327 318 311 302 294 285 277 268 260 254 251 249 245 239 235 230 222 213 208 206 202 199 196 192 188 185 183 182 184 185 184 183 182 182 185 186 186
160 117 177 223 186 118 134 227 165 125 212 235 187 173 155 121 113 114 81 59 52 50 46 49 45 38 42 41 29 24 18 11 12 10 9 8 8 7 5 5 5 5 9 13 12 10 11 8 1 359 359 1 1 359 359 359 357 354 351 344 335 326 317 309 301 293 282 271 262 256 251 244 240 237 232 226 216 205 201 201 199 196 193 190 189 188 187 185 184 186 187 187 187 186 187 186 184
109 159 212 242 23 87 120 217 128 114 236 241 180 180 185 162 157 114 64 52 47 43 42 46 41 36 40 37 27 21 15 11 8 7 8 7 6 5 1 0 1 359 0 6 8 9 11 11 7 1 356 356 357 356 356 356 355 353 349 344 337 328 320 311 303 296 287 278 269 264 257 246 238 234 230 223 212 201 196 195 192 187 185 185 186 186 185 184 184 185 187 188 188 188 186 182 182
107 202 238 90 121 195 145 177 185 181 220 248 211 199 202 186 162 103 68 58 53 42 39 41 34 33 34 25 21 15 9 9 8 5 4 2 2 1 359 357 358 360 2 3 5 8 10 9 9 6 357 354 356 355 355 353 353 351 346 341 335 326 319 310 300 293 288 284 277 268 258 247 238 232 228 223 214 203 194 191 186 182 180 180 182 184 184 184 183 183 185 187 187 186 184 180 179
27 15 356 58 139 187 184 179 155 173 210 243 232 207 207 298 107 96 88 76 66 53 46 46 37 34 33 24 17 13 11 9 4 3 359 357 357 356 356 356 356 358 3 5 6 8 7 4 5 7 2 357 356 355 354 351 349 348 343 338 333 325 316 307 297 288 285 283 275 263 253 245 239 234 230 223 215 206 198 193 188 185 184 181 182 185 186 186 186 185 186 186 184 184 185 179 175
357 23 360 355 8 26 300 227 94 131 196 231 236 226 232 32 81 93 96 81 69 69 64 59 48 39 36 30 21 13 12 10 3 1 357 354 355 353 353 353 353 355 359 3 5 5 5 3 3 4 4 0 355 353 352 349 347 346 342 336 331 325 316 306 295 284 279 277 268 256 246 241 237 233 230 223 214 205 200 195 190 188 186 184 186 187 188 188 186 183 182 181 180 181 180 173 167
69 32 42 353 347 41 258 233 206 124 193 205 229 244 254 107 106 98 100 86 68 65 64 61 50 41 35 30 25 17 12 8 3 0 356 353 353 352 351 351 353 354 353 356 358 359 2 4 2 1 2 1 356 351 349 348 346 344 340 335 328 324 315 305 294 281 274 271 265 254 244 238 233 227 222 217 211 204 199 194 189 187 184 184 187 187 186 186 183 180 175 172 172 172 169 164 159